Location: Fort Wayne
(41.1310°N, 85.1290°W)
Time: 18:06:51
(UTC-04:00)

Tiros 1 despin weight - Visible Passes

Search period start: 23 April 2014 00:00
Search period end: 03 May 2014 00:00
Orbit: 602 x 653 km, 48.2° (Epoch: 23 April)

Date Brightness Start Highest point End Pass type
(mag) Time Alt. Az. Time Alt. Az. Time Alt. Az.
25 Apr ? 06:00:21 10° S 06:03:12 17° SE 06:06:01 10° E visible
27 Apr ? 04:59:17 10° SSE 05:01:06 12° SE 05:02:55 10° ESE visible
28 Apr ? 05:17:28 13° S 05:20:28 26° SE 05:24:10 10° E visible
29 Apr ? 05:36:23 15° SW 05:39:58 50° SE 05:44:18 10° ENE visible
30 Apr ? 04:17:58 19° SE 04:18:18 20° SE 04:21:31 10° E visible
30 Apr ? 05:55:14 11° WSW 05:59:37 89° NNW 06:04:07 10° ENE visible
01 May ? 04:36:44 34° S 04:37:44 38° SE 04:41:54 10° ENE visible
02 May ? 03:18:12 11° ESE 03:18:12 11° ESE 03:18:37 10° E visible
02 May ? 04:55:26 35° SW 04:57:18 74° SSE 05:01:47 10° ENE visible
